    Observer details:
    568 Maunakea.  Observer S. Gwyn.  3.6-m Canada-France-Hawaii Telescope.
    645 Apache Point-Sloan Digital Sky Survey.  Observer .  Measurer K. Ly.
    F51 Pan-STARRS 1, Haleakala.  Observers J. Bulger, T. Lowe, A. Schultz, I.
        Smith, T. Goggia, N. Primak, J. Thiel, S. Watters, B. Gibson, M. Willman.
        Measurers J. Kurlander, M. Holman, M. Payne, A. Heinze, P. Bernardinelli,
        M. Lackner, Y.-T. Chen, W. Fraser, P. Lacerda, H.-W. Lin, P. Protopapas,
        K. Chambers, S. Chastel, L. Denneau, H. Flewelling, M. Huber, R. Jedicke,
        E. Lilly, E. Magnier, M. Micheli, P. Veres, R. Wainscoat, C. Waters, R.
        Weryk.  1.8-m Ritchey-Chretien + CCD.
    T14 Canada-France-Hawaii Telescope, Maunakea.  Observer T. Webb.  Measurer K.
        Ly.
    W84 Cerro Tololo-DECam.  Observers J. Pineda, R. Morgan, A. Diaz, H. Prado, J.
        Carlin.  Measurer K. Ly.
    
    Orbital elements:
    2010 RJ226                                                                      
    Epoch 2023 Sept. 13.0 TT = JDT 2460200.5                Alexandersen            
    M   4.31256              (2000.0)            P               Q                  
    n   0.00607342     Peri.  291.34057     -0.45969454     -0.88392998             
    a  29.7518331      Node   187.85795     +0.84612992     -0.46525231             
    e   0.5826777      Incl.   38.83063     -0.26971297     +0.04699028             
    P 162              H    9.89          G   0.15           U   4                  
    Residuals in seconds of arc
    081031 645  0.1+  0.1+    100910 F51  0.1+  0.3+    100917 F51  0.1+  0.1+
    081031 645  0.0   0.1+    100910 T14  0.2+  0.0     100917 F51  0.2+  0.1+
    081031 645  0.1-  0.1+    100910 T14  0.2+  0.0     100917 F51  0.2+  0.2-
    100815 F51  0.1-  0.1+    100913 568  0.1+  0.0     100917 F51  0.1+  0.1-
    100815 F51  0.1+  0.2-    100913 F51  0.2+  0.2-    100917 F51  0.3+  0.1+
    100815 F51  0.4-  0.1+    100913 F51  0.2+  0.3-    100917 F51  0.2+  0.0
    100815 F51  0.2-  0.1-    100913 F51  0.2-  0.1-    100918 F51  0.3+  0.0
    100815 F51  0.2-  0.1+    100913 F51  0.1+  0.0     100918 F51  0.5+  0.2-
    100815 F51  0.1-  0.0     100913 F51  0.0   0.2-    100918 F51  0.3+  0.3-
    100815 F51  0.1-  0.1+    100913 568  0.1+  0.1-    100918 F51  0.0   0.1-
    100902 F51  0.3-  0.2+    100913 F51  0.1+  0.2+    100918 F51  0.0   0.0
    100902 F51  0.1-  0.1+    100913 568  0.1+  0.1-    100919 F51  0.3-  0.1-
    100902 F51  0.0   0.1+    100913 568  0.1+  0.1-    100919 F51  0.0   0.2+
    100902 F51  0.0   0.2+    100914 568  0.1+  0.0     100919 F51  0.1+  0.3+
    100902 F51  0.0   0.2+    100914 568  0.0   0.0     100919 F51  0.2-  0.3-
    100902 F51  0.1-  0.3+    100914 568  0.0   0.0     100919 F51  0.3+  0.2+
    100902 F51  0.3-  0.2+    100914 568  0.1+  0.0     141116 F51  0.1+  0.3+
    100903 F51  0.3-  0.3+    100914 F51  0.0   0.1-    141116 F51  0.1+  0.0
    100905 F51  0.5-  0.1-    100914 F51  0.1+  0.2-    141116 F51  0.0   0.3+
    100905 F51  0.2-  0.2+    100914 F51  0.1+  0.2+    141226 F51  0.3-  0.1+
    100906 F51  0.3-  0.1+    100915 F51  0.4+  0.1-    141226 F51  0.2+  0.0
    100906 F51  0.0   0.2-    100915 F51  0.3+  0.3-    141226 F51  0.1-  0.5-
    100906 F51  0.3-  0.4-    100915 F51  0.1+  0.1-    141226 F51  0.1+  0.1+
    100907 F51  0.3-  0.3+    100915 F51  0.1+  0.0     150124 F51  0.2-  0.3-
    100908 F51  0.3-  0.1-    100916 F51  0.2+  0.2-    150124 F51  0.0   0.1+
    100908 F51  0.3-  0.1+    100916 F51  0.0   0.0     150124 F51  0.1-  0.4-
    100908 F51  0.1-  0.1+    100916 F51  0.0   0.1-    150124 F51  0.1-  0.1-
    100908 F51  0.3-  0.0     100916 F51  0.3+  0.2-    200210 W84  0.0   0.0
    100909 F51  0.2-  0.1+    100916 F51  0.1+  0.1-    200213 W84  0.0   0.1+
    100909 F51  0.1-  0.1+    100916 F51  0.2+  0.1-    200224 W84  0.0   0.0
    100909 F51  0.2-  0.2+    100916 F51  0.2+  0.0     200302 W84  0.0   0.0
    100910 F51  0.2-  0.2+    100917 F51  0.2+  0.1-
    100910 F51  0.1-  0.1+    100917 F51  0.2+  0.0
    
    Ephemeris:
    2010 RJ226               a,e,i = 29.75, 0.58, 39                 q = 12.4161
    Date    TT    R. A. (2000) Decl.     Delta      r    Elong.  Phase     V
    2023 07 29    09 07 43.7 -11 36 14  13.5099 12.6589    31.9     2.4    21.3
    ...
    2023 08 13    09 13 27.9 -11 48 48  13.5646 12.6698    27.0     2.1    21.3
    ...
    2023 08 21    09 16 30.2 -11 58 22  13.5735 12.6757    26.5     2.0    21.3
    ...
    2023 08 27    09 18 44.8 -12 06 45  13.5708 12.6802    27.2     2.1    21.3
    2023 08 28    09 19 07.1 -12 08 14  13.5695 12.6810    27.4     2.1    21.3
    2023 08 29    09 19 29.2 -12 09 44  13.5681 12.6817    27.6     2.1    21.3
    ...
    2023 09 04    09 21 40.3 -12 19 19  13.5547 12.6863    29.5     2.2    21.3
    ...
    2023 09 12    09 24 29.5 -12 33 22  13.5246 12.6923    33.0     2.5    21.3
    ...
    2023 09 27    09 29 23.8 -13 02 52  13.4318 12.7040    42.0     3.0    21.4
    
    M. P. C. Staff               (C) Copyright 2023 MPC           M.P.E.C. 2023-Q157
    


    Read MPEC 2023-Q156 Read MPEC 2023-Q158


    MPEC number:

    Enter an MPEC number in one of the following forms:

    • 1997-B01 (the full form)
    • J97B01 (the packed version of the full form)
    • B01 (the abbreviated form)